Location: Selkirk
(50.1500°N, 96.8830°W)
Time: 03:36:00
(UTC-06:00)

Amateur Radio Satellites - All Passes

Search period start: 24 November 2017 03:06
Search period end: 25 November 2017 03:06
Location: Selkirk, 50.1500°N, 96.8830°W

Satellite Date Start Highest point End Downlink Frequencies (MHz)
Time Altitude Azimuth
CUBESAT XI-V 24 Nov 03:06:29 03:10:48 41° 68° (ENE) 03:15:10 437.345
BUGSAT 1 24 Nov 03:07:50 03:10:30 17° 300° (WNW) 03:13:08 437.445
Gurwin Techsat 1B 24 Nov 03:22:50 03:27:52 43° 294° (WNW) 03:32:51 435.225
SO-50 24 Nov 03:31:17 03:34:42 20° 24° (NNE) 03:38:09 436.795
AO-85 24 Nov 03:41:53 03:45:17 29° 118° (ESE) 03:48:51 145.980
AO-7 24 Nov 03:51:29 03:59:39 54° 102° (ESE) 04:07:48 .
M-CUBED/EXP-1 PRIME 24 Nov 03:55:05 03:59:39 83° 293° (WNW) 04:04:19 437.505
BEESAT 2 24 Nov 04:12:21 04:16:22 63° 313° (NW) 04:20:26 435.950
Oscar 19 24 Nov 04:12:40 04:15:33 15° 307° (NW) 04:18:26 437.125/150
KKS-1 24 Nov 04:14:41 04:19:01 50° 69° (ENE) 04:23:22 437.445
MOZHAYETS 4 24 Nov 04:27:10 04:28:40 11° 274° (W) 04:30:10
STARS 24 Nov 04:29:59 04:33:55 32° 65° (ENE) 04:37:50 437.465
ITAMSAT 1 24 Nov 04:31:17 04:36:33 84° 105° (ESE) 04:41:45 435.822/435.867
BEESAT 3 24 Nov 04:31:47 04:34:59 22° 328° (NNW) 04:38:11 437.485
BEESAT 24 Nov 04:32:52 04:35:12 13° 273° (W) 04:37:33 436.000
PCSat 24 Nov 04:40:38 04:43:10 13° 360° (N) 04:45:42 145.827
CUBESAT XI-V 24 Nov 04:44:24 04:48:18 27° 267° (W) 04:52:16 437.345
ITUPSAT 1 24 Nov 04:46:21 04:47:21 11° 275° (W) 04:48:21 437.325
YUBILEINY 24 Nov 04:52:52 05:00:54 42° 86° (E) 05:08:59 435.215
RS-15 24 Nov 05:07:31 05:17:32 35° 255° (WSW) 05:27:09 29.354- 29.394
SO-50 24 Nov 05:11:24 05:16:00 64° 45° (NE) 05:20:40 436.795
STRAND 1 24 Nov 05:21:43 05:25:07 18° 55° (NE) 05:28:32 437.568
AO-85 24 Nov 05:21:47 05:25:33 41° 320° (NW) 05:29:33 145.980
DOVE 4 24 Nov 05:27:14 05:32:25 63° 100° (E) 05:37:19 437.250
M-CUBED/EXP-1 PRIME 24 Nov 05:30:44 05:33:25 16° 309° (NW) 05:36:07 437.505
KAITUO 1B 24 Nov 05:39:08 05:40:40 12° 88° (E) 05:42:11 145.475/437.950
FO-29 24 Nov 05:40:20 05:44:25 16° 42° (NE) 05:48:39 435.910
AO-7 24 Nov 05:44:32 05:52:20 46° 304° (NW) 06:00:08 .
BEESAT 2 24 Nov 05:52:08 05:54:51 17° 335° (NNW) 05:57:35 435.950
KKS-1 24 Nov 05:52:21 05:55:50 22° 268° (W) 05:59:20 437.445
XW-2D 24 Nov 06:01:22 06:04:42 28° 95° (E) 06:08:02 145.860 - 145.880
STARS 24 Nov 06:06:10 06:10:12 34° 263° (W) 06:14:15 437.465
HO-68 24 Nov 06:10:34 06:15:21 18° 86° (E) 06:20:05 435.675
ITAMSAT 1 24 Nov 06:11:50 06:15:23 19° 305° (NW) 06:18:56 435.822/435.867
BEESAT 3 24 Nov 06:13:05 06:13:56 11° 352° (N) 06:14:46 437.485
XW-2B 24 Nov 06:16:09 06:19:45 38° 98° (E) 06:23:20 145.730 - 145.750
NUDT-PHONESAT 24 Nov 06:16:29 06:19:43 27° 95° (E) 06:22:57 437.300
PCSat 24 Nov 06:24:45 06:28:44 20° 26° (NNE) 06:32:43 145.827
CUTE 1.7 + AOD 2 24 Nov 06:26:21 06:28:55 15° 89° (E) 06:31:29 437.475
CUTE-I 24 Nov 06:27:05 06:32:12 42° 98° (E) 06:37:15 437.470
XW-2C 24 Nov 06:41:51 06:45:40 77° 103° (ESE) 06:49:30 145.795 - 145.815
LilacSat-2 24 Nov 06:48:07 06:51:59 85° 281° (WNW) 06:55:50 437.200
YUBILEINY 24 Nov 06:48:59 06:57:32 54° 289° (WNW) 07:06:12 435.215
XW-2F 24 Nov 06:49:20 06:53:10 86° 110° (ESE) 06:56:58 145.980 - 146.000
SEEDS 24 Nov 06:50:00 06:52:47 17° 89° (E) 06:55:33 437.485
SO-50 24 Nov 06:52:28 06:56:06 23° 245° (WSW) 06:59:47 436.795
STRAND 1 24 Nov 06:58:30 07:03:40 86° 256° (WSW) 07:08:51 437.568
AO-85 24 Nov 07:04:43 07:07:05 15° 344° (NNW) 07:09:33 145.980
DOVE 4 24 Nov 07:05:36 07:09:38 23° 301° (WNW) 07:13:31 437.250
UWE-3 24 Nov 07:11:11 07:13:32 15° 89° (E) 07:15:53 435.000/436.395/437.385
KAITUO 1B 24 Nov 07:11:19 07:15:05 68° 286° (WNW) 07:18:49 145.475/437.950
FO-29 24 Nov 07:20:58 07:27:43 52° 64° (ENE) 07:35:08 435.910
BEESAT 2 24 Nov 07:33:36 07:34:11 10° 359° (N) 07:34:45 435.950
XW-2D 24 Nov 07:35:32 07:38:50 28° 293° (WNW) 07:42:09 145.860 - 145.880
AO-7 24 Nov 07:38:31 07:43:08 16° 328° (NNW) 07:47:44 .
AO-73 24 Nov 07:42:32 07:44:59 15° 89° (E) 07:47:25 145.935
NUDT-PHONESAT 24 Nov 07:50:21 07:53:32 27° 293° (WNW) 07:56:43 437.300
XW-2B 24 Nov 07:50:46 07:53:43 22° 296° (WNW) 07:56:40 145.730 - 145.750
BEESAT 3 24 Nov 07:51:29 07:53:11 12° 16° (NNE) 07:54:52 437.485
Oscar 11 24 Nov 07:55:05 07:57:34 15° 88° (E) 08:00:01 .
CUBEBUG 2 24 Nov 07:56:45 08:00:56 69° 103° (ESE) 08:05:03 437.445
HO-68 24 Nov 07:56:56 08:04:11 82° 106° (ESE) 08:11:22 435.675
CUTE 1.7 + AOD 2 24 Nov 08:00:56 08:05:12 66° 287° (WNW) 08:09:26 437.475
CUTE-I 24 Nov 08:07:20 08:12:10 35° 297° (WNW) 08:16:58 437.470
PCSat 24 Nov 08:07:49 08:13:14 62° 49° (NE) 08:18:36 145.827
UNISAT 6 24 Nov 08:08:26 08:11:52 22° 62° (ENE) 08:15:15 437.425
TIGRISAT 24 Nov 08:11:50 08:15:14 22° 62° (ENE) 08:18:36 435.000
XW-2C 24 Nov 08:17:35 08:19:19 13° 301° (WNW) 08:21:02 145.795 - 145.815
XW-2A 24 Nov 08:18:16 08:21:37 64° 102° (ESE) 08:24:58 145.665 - 145.685
AAUSAT CUBESAT 2 24 Nov 08:20:42 08:24:53 60° 101° (E) 08:29:02 437.432
SEEDS 24 Nov 08:24:39 08:28:51 59° 288° (WNW) 08:33:02 437.485
LilacSat-2 24 Nov 08:24:40 08:25:35 11° 303° (WNW) 08:26:31 437.200
XW-2F 24 Nov 08:25:22 08:26:40 11° 302° (WNW) 08:27:58 145.980 - 146.000
ZACube-1 24 Nov 08:28:41 08:32:43 47° 99° (E) 08:36:45 437.345
STRAND 1 24 Nov 08:41:02 08:43:37 14° 274° (W) 08:46:14 437.568
UWE-3 24 Nov 08:46:20 08:50:27 64° 287° (WNW) 08:54:33 435.000/436.395/437.385
AO-85 24 Nov 08:47:19 08:49:18 13° 9° (N) 08:51:20 145.980
YUBILEINY 24 Nov 08:52:01 08:56:52 16° 315° (NW) 09:01:46 435.215
FO-29 24 Nov 09:06:25 09:12:55 41° 267° (W) 09:20:06 435.910
BEESAT 2 24 Nov 09:11:03 09:13:34 16° 23° (NNE) 09:16:04 435.950
AO-73 24 Nov 09:17:31 09:21:38 63° 287° (WNW) 09:25:45 145.935
BEESAT 3 24 Nov 09:28:14 09:31:52 33° 39° (NE) 09:35:27 437.485
Oscar 11 24 Nov 09:29:51 09:34:11 70° 287° (WNW) 09:38:29 .
CUBEBUG 2 24 Nov 09:34:34 09:37:04 16° 301° (WNW) 09:39:32 437.445
PRISM 24 Nov 09:38:02 09:42:05 55° 71° (ENE) 09:46:10 437.425
CUTE 1.7 + AOD 2 24 Nov 09:39:57 09:40:12 10° 306° (NW) 09:40:26 437.475
UNISAT 6 24 Nov 09:43:51 09:48:17 53° 260° (W) 09:52:38 437.425
HO-68 24 Nov 09:45:24 09:51:14 28° 308° (NW) 09:57:02 435.675
TIGRISAT 24 Nov 09:47:12 09:51:38 53° 260° (W) 09:55:59 435.000
PCSat 24 Nov 09:51:46 09:56:16 27° 249° (WSW) 10:00:45 145.827
AIST 2D 24 Nov 09:51:56 09:54:38 22° 66° (ENE) 09:57:22 435.315
XW-2A 24 Nov 09:52:35 09:53:52 12° 300° (WNW) 09:55:09 145.665 - 145.685
DELFI C3 24 Nov 09:53:31 09:57:26 49° 99° (E) 10:01:18 145.870
AAUSAT CUBESAT 2 24 Nov 09:57:05 09:59:55 18° 299° (WNW) 10:02:45 437.432
EO-88 24 Nov 10:05:06 10:08:26 32° 97° (E) 10:11:45 145.990 - 145.960
ZACube-1 24 Nov 10:05:36 10:08:44 21° 297° (WNW) 10:11:53 437.345
DUCHIFAT 1 24 Nov 10:13:37 10:16:04 15° 58° (ENE) 10:18:32 145.980
Max Valier Satellite 24 Nov 10:14:55 10:18:33 60° 101° (E) 10:22:12 145.860
EO-79 24 Nov 10:24:23 10:27:44 23° 63° (ENE) 10:31:06 145.935-145.965
NANOSAT C BR1 24 Nov 10:25:21 10:28:34 21° 62° (ENE) 10:31:46 145.865
AO-85 24 Nov 10:27:22 10:31:10 26° 33° (NNE) 10:35:12 145.980
POLYITAN 1 24 Nov 10:40:15 10:44:00 32° 66° (ENE) 10:47:44 437.675
BEESAT 2 24 Nov 10:48:09 10:52:09 53° 45° (NE) 10:56:05 435.950
BUGSAT 1 24 Nov 10:53:24 10:54:33 11° 55° (NE) 10:55:42 437.445
QB50P2 24 Nov 11:03:21 11:07:31 57° 72° (ENE) 11:11:41 145.880/145.840
BEESAT 3 24 Nov 11:05:46 11:09:28 38° 239° (WSW) 11:13:05 437.485
Oscar 11 24 Nov 11:08:26 11:09:31 11° 306° (NW) 11:10:38 .
ESTCUBE 1 24 Nov 11:14:44 11:18:29 25° 93° (E) 11:22:13 437.505/2401.250
PRISM 24 Nov 11:14:54 11:17:42 17° 269° (W) 11:20:31 437.425
AO-7 24 Nov 11:18:33 11:21:25 12° 23° (NNE) 11:24:17 .
AIST 2D 24 Nov 11:24:33 11:27:40 31° 264° (W) 11:30:49 435.315
DELFI C3 24 Nov 11:28:59 11:31:52 19° 298° (WNW) 11:34:44 145.870
Gurwin Techsat 1B 24 Nov 11:31:34 11:34:42 16° 53° (NE) 11:37:51 435.225
EO-88 24 Nov 11:39:00 11:41:57 23° 295° (WNW) 11:44:53 145.990 - 145.960
DUCHIFAT 1 24 Nov 11:47:00 11:51:13 74° 257° (WSW) 11:55:26 145.980
SPROUT 24 Nov 11:49:35 11:51:56 14° 88° (E) 11:54:16 437.525
Max Valier Satellite 24 Nov 11:49:54 11:51:57 14° 299° (WNW) 11:54:00 145.860
LO-87 24 Nov 11:51:06 11:54:40 76° 103° (ESE) 11:58:10 145.935 - 145.965
EO-79 24 Nov 11:59:13 12:03:16 44° 261° (W) 12:07:21 145.935-145.965
NANOSAT C BR1 24 Nov 11:59:54 12:03:59 48° 260° (W) 12:08:06 145.865
AO-91 24 Nov 12:06:33 12:11:20 33° 65° (ENE) 12:16:02 145.960
AO-85 24 Nov 12:07:24 12:12:01 78° 233° (SW) 12:16:59 145.980
Oscar 19 24 Nov 12:14:36 12:19:20 40° 65° (ENE) 12:24:06 437.125/150
POLYITAN 1 24 Nov 12:15:59 12:19:45 31° 264° (W) 12:23:32 437.675
BUGSAT 1 24 Nov 12:25:01 12:29:11 76° 74° (ENE) 12:33:20 437.445
BEESAT 2 24 Nov 12:26:25 12:29:35 22° 244° (WSW) 12:32:41 435.950
QB50P2 24 Nov 12:40:50 12:43:40 17° 270° (W) 12:46:30 145.880/145.840
O/OREOS (USA 219) 24 Nov 12:47:51 12:52:01 35° 107° (ESE) 12:56:13 437.305
ESTCUBE 1 24 Nov 12:51:09 12:55:29 44° 292° (WNW) 12:59:48 437.505/2401.250
VELOX 1 24 Nov 12:55:11 12:59:25 40° 98° (E) 13:03:35 145.980
AO-7 24 Nov 13:04:37 13:11:39 32° 49° (NE) 13:18:42 .
Gurwin Techsat 1B 24 Nov 13:08:32 13:13:51 80° 73° (ENE) 13:19:12 435.225
M-CUBED/EXP-1 PRIME 24 Nov 13:11:17 13:14:39 31° 59° (ENE) 13:18:17 437.505
SPROUT 24 Nov 13:24:03 13:28:18 69° 287° (WNW) 13:32:31 437.525
LO-87 24 Nov 13:26:24 13:27:31 11° 301° (WNW) 13:28:38 145.935 - 145.965
DX 1 24 Nov 13:29:19 13:32:49 23° 93° (E) 13:36:16 434.975-435.025
AO-91 24 Nov 13:42:26 13:47:36 46° 262° (W) 13:52:43 145.960
AO-85 24 Nov 13:49:27 13:51:50 14° 249° (WSW) 13:54:17 145.980
Oscar 19 24 Nov 13:54:07 13:58:43 34° 264° (W) 14:03:23 437.125/150
NO-84 24 Nov 14:02:15 14:04:54 19° 131° (SE) 14:07:41 435.350 FM
BUGSAT 1 24 Nov 14:03:08 14:05:03 13° 272° (W) 14:06:57 437.445
UKube-1 24 Nov 14:03:12 14:07:04 30° 96° (E) 14:10:54 .
50 SAT 24 Nov 14:06:12 14:09:23 56° 101° (ESE) 14:12:33 437.505
ITAMSAT 1 24 Nov 14:15:12 14:19:54 35° 63° (ENE) 14:24:37 435.822/435.867
O/OREOS (USA 219) 24 Nov 14:27:11 14:31:26 35° 307° (NW) 14:35:42 437.305
VELOX 1 24 Nov 14:31:55 14:35:42 28° 297° (WNW) 14:39:28 145.980
MOZHAYETS 4 24 Nov 14:37:28 14:40:21 16° 89° (E) 14:43:14
M-CUBED/EXP-1 PRIME 24 Nov 14:45:45 14:49:03 29° 260° (W) 14:52:35 437.505
BEESAT 24 Nov 14:48:28 14:51:22 16° 89° (E) 14:54:15 436.000
Gurwin Techsat 1B 24 Nov 14:50:57 14:54:26 18° 272° (W) 14:57:57 435.225
AO-7 24 Nov 14:55:24 15:03:42 81° 250° (WSW) 15:12:06 .
YUBILEINY 24 Nov 14:56:30 15:03:56 29° 58° (ENE) 15:11:18 435.215
ITUPSAT 1 24 Nov 15:00:20 15:03:49 20° 91° (E) 15:07:17 437.325
DOVE 4 24 Nov 15:00:47 15:04:22 19° 57° (ENE) 15:08:00 437.250
SPROUT 24 Nov 15:02:34 15:03:23 10° 306° (NW) 15:04:13 437.525
DX 1 24 Nov 15:05:00 15:09:13 46° 292° (WNW) 15:13:23 434.975-435.025
NO-84 24 Nov 15:37:58 15:41:43 87° 151° (SSE) 15:45:47 435.350 FM
UKube-1 24 Nov 15:39:11 15:43:06 33° 295° (WNW) 15:46:59 .
50 SAT 24 Nov 15:39:44 15:41:02 12° 300° (WNW) 15:42:19 437.505
ITAMSAT 1 24 Nov 15:54:22 15:59:18 41° 262° (W) 16:04:16 435.822/435.867
LilacSat-2 24 Nov 16:03:03 16:04:04 11° 57° (ENE) 16:05:05 437.200
MOZHAYETS 4 24 Nov 16:13:26 16:17:59 69° 287° (WNW) 16:22:32
CUTE-I 24 Nov 16:15:33 16:19:24 20° 56° (NE) 16:23:15 437.470
KAITUO 1B 24 Nov 16:23:49 16:25:20 12° 59° (ENE) 16:26:50 145.475/437.950
BEESAT 24 Nov 16:24:56 16:29:42 76° 288° (WNW) 16:34:26 436.000
CUBESAT XI-V 24 Nov 16:35:00 16:39:38 54° 100° (E) 16:44:14 437.345
DOVE 4 24 Nov 16:36:11 16:41:22 85° 257° (WSW) 16:46:43 437.250
ITUPSAT 1 24 Nov 16:37:20 16:42:02 60° 290° (WNW) 16:46:44 437.325
HO-68 24 Nov 16:44:26 16:50:06 26° 51° (NE) 16:55:46 435.675
XW-2D 24 Nov 16:46:52 16:50:02 27° 66° (ENE) 16:53:15 145.860 - 145.880
AO-7 24 Nov 16:52:01 16:57:47 20° 273° (W) 17:03:37 .
YUBILEINY 24 Nov 16:52:59 17:01:53 83° 264° (W) 17:10:43 435.215
NUDT-PHONESAT 24 Nov 16:59:47 17:02:49 25° 66° (ENE) 17:05:52 437.300
XW-2B 24 Nov 17:01:31 17:04:57 36° 69° (ENE) 17:08:26 145.730 - 145.750
NO-84 24 Nov 17:15:36 17:19:22 43° 353° (N) 17:23:22 435.350 FM
CUTE 1.7 + AOD 2 24 Nov 17:23:14 17:26:19 20° 62° (ENE) 17:29:25 437.475
RS-15 24 Nov 17:23:50 17:34:08 33° 105° (ESE) 17:44:21 29.354- 29.394
CUBEBUG 2 24 Nov 17:24:39 17:27:07 15° 58° (ENE) 17:29:34 437.445
XW-2C 24 Nov 17:27:03 17:30:45 71° 74° (ENE) 17:34:31 145.795 - 145.815
LilacSat-2 24 Nov 17:33:56 17:37:42 90° 145° (SE) 17:41:31 437.200
XW-2F 24 Nov 17:34:01 17:37:44 79° 76° (ENE) 17:41:30 145.980 - 146.000
KKS-1 24 Nov 17:37:10 17:41:32 51° 100° (E) 17:45:52 437.445
AAUSAT CUBESAT 2 24 Nov 17:43:37 17:44:09 10° 54° (NE) 17:44:41 437.432
SEEDS 24 Nov 17:45:53 17:49:03 21° 62° (ENE) 17:52:14 437.485
STARS 24 Nov 17:50:24 17:54:19 30° 96° (E) 17:58:09 437.465
MOZHAYETS 4 24 Nov 17:52:48 17:54:19 12° 307° (NW) 17:55:50
CUTE-I 24 Nov 17:53:28 17:58:51 80° 255° (WSW) 18:04:17 437.470
KAITUO 1B 24 Nov 17:55:04 17:58:45 77° 257° (WSW) 18:02:29 145.475/437.950
BEESAT 24 Nov 18:04:26 18:06:41 13° 307° (NW) 18:08:56 436.000
UWE-3 24 Nov 18:12:03 18:15:27 23° 63° (ENE) 18:18:47 435.000/436.395/437.385
CUBESAT XI-V 24 Nov 18:12:59 18:16:41 23° 299° (WNW) 18:20:22 437.345
DOVE 4 24 Nov 18:17:07 18:19:50 14° 276° (W) 18:22:37 437.250
ITUPSAT 1 24 Nov 18:17:39 18:18:55 11° 310° (NW) 18:20:13 437.325
XW-2D 24 Nov 18:20:52 18:24:09 29° 264° (W) 18:27:28 145.860 - 145.880
HO-68 24 Nov 18:29:50 18:37:03 87° 250° (WSW) 18:44:20 435.675
NUDT-PHONESAT 24 Nov 18:33:20 18:36:34 29° 264° (W) 18:39:50 437.300
XW-2B 24 Nov 18:36:21 18:39:15 21° 267° (W) 18:42:11 145.730 - 145.750
AO-73 24 Nov 18:42:05 18:45:19 22° 63° (ENE) 18:48:32 145.935
YUBILEINY 24 Nov 18:51:14 18:57:20 21° 286° (WNW) 19:03:28 435.215
NO-84 24 Nov 18:53:17 18:57:16 49° 14° (NNE) 19:01:24 435.350 FM
XW-2A 24 Nov 18:53:21 18:56:30 42° 71° (ENE) 18:59:41 145.665 - 145.685
Oscar 11 24 Nov 18:54:01 18:57:13 21° 62° (ENE) 19:00:26 .
CUTE 1.7 + AOD 2 24 Nov 18:57:43 19:01:49 52° 260° (W) 19:05:59 437.475
CUBEBUG 2 24 Nov 18:58:40 19:03:12 83° 258° (WSW) 19:07:36 437.445
XW-2C 24 Nov 19:04:08 19:05:25 11° 273° (W) 19:06:42 145.795 - 145.815
STRAND 1 24 Nov 19:04:51 19:08:53 23° 91° (E) 19:12:54 437.568
XW-2F 24 Nov 19:11:56 19:12:23 10° 273° (W) 19:12:50 145.980 - 146.000
KKS-1 24 Nov 19:14:17 19:17:47 23° 299° (WNW) 19:21:15 437.445
AAUSAT CUBESAT 2 24 Nov 19:14:41 19:18:48 70° 74° (ENE) 19:22:58 437.432
SEEDS 24 Nov 19:20:24 19:24:26 48° 261° (W) 19:28:32 437.485
STARS 24 Nov 19:26:41 19:30:41 35° 294° (WNW) 19:34:38 437.465
ZACube-1 24 Nov 19:28:29 19:32:43 65° 73° (ENE) 19:36:53 437.345
RS-15 24 Nov 19:32:56 19:45:20 89° 305° (NW) 19:57:35 29.354- 29.394
CUTE-I 24 Nov 19:37:13 19:39:46 13° 275° (W) 19:42:21 437.470
UWE-3 24 Nov 19:47:26 19:51:40 46° 261° (W) 19:55:49 435.000/436.395/437.385
nSIGHT-1 24 Nov 19:56:06 19:58:38 21° 143° (SE) 20:01:10 .
FO-29 24 Nov 20:10:28 20:17:30 34° 91° (E) 20:24:06 435.910
AO-73 24 Nov 20:17:13 20:21:18 46° 261° (W) 20:25:22 145.935
HO-68 24 Nov 20:20:43 20:25:48 20° 273° (W) 20:30:54 435.675
XW-2A 24 Nov 20:27:34 20:29:26 14° 269° (W) 20:31:20 145.665 - 145.685
Oscar 11 24 Nov 20:28:51 20:33:02 52° 260° (W) 20:37:16 .
NO-84 24 Nov 20:30:38 20:34:47 65° 214° (SSW) 20:39:02 435.350 FM
CUBEBUG 2 24 Nov 20:39:22 20:40:28 11° 274° (W) 20:41:33 437.445
DELFI C3 24 Nov 20:42:38 20:46:30 52° 71° (ENE) 20:50:25 145.870
STRAND 1 24 Nov 20:43:25 20:48:27 58° 290° (WNW) 20:53:26 437.568
EO-88 24 Nov 20:46:54 20:50:02 28° 67° (ENE) 20:53:12 145.990 - 145.960
ISS 24 Nov 20:52:32 20:55:40 44° 152° (SSE) 20:58:49 437.550
AAUSAT CUBESAT 2 24 Nov 20:52:36 20:54:44 14° 272° (W) 20:56:54 437.432
Max Valier Satellite 24 Nov 20:57:40 21:01:12 51° 72° (ENE) 21:04:46 145.860
ZACube-1 24 Nov 21:06:55 21:09:25 15° 271° (W) 21:11:54 437.345
SO-50 24 Nov 21:10:06 21:14:13 37° 121° (ESE) 21:18:24 436.795
O/OREOS (USA 219) 24 Nov 21:13:58 21:17:45 25° 48° (NE) 21:21:28 437.305
UNISAT 6 24 Nov 21:31:08 21:34:30 22° 92° (E) 21:37:50 437.425
nSIGHT-1 24 Nov 21:31:19 21:34:33 82° 159° (SSE) 21:37:46 .
TIGRISAT 24 Nov 21:34:21 21:37:40 22° 92° (E) 21:40:59 435.000
RS-15 24 Nov 21:47:42 21:59:28 47° 339° (NNW) 22:10:55 29.354- 29.394
FO-29 24 Nov 21:55:11 22:02:59 65° 292° (WNW) 22:10:19 435.910
NO-84 24 Nov 22:09:04 22:11:33 15° 231° (SW) 22:14:03 435.350 FM
ESTCUBE 1 24 Nov 22:18:21 22:22:30 38° 67° (ENE) 22:26:41 437.505/2401.250
DELFI C3 24 Nov 22:18:53 22:21:32 17° 270° (W) 22:24:14 145.870
EO-88 24 Nov 22:20:36 22:23:40 25° 266° (W) 22:26:45 145.990 - 145.960
VELOX 1 24 Nov 22:24:26 22:25:11 10° 52° (NE) 22:25:57 145.980
STRAND 1 24 Nov 22:24:57 22:26:36 12° 311° (NW) 22:28:16 437.568
ISS 24 Nov 22:28:48 22:32:05 71° 351° (N) 22:35:21 437.550
LO-87 24 Nov 22:30:50 22:34:23 61° 73° (ENE) 22:37:57 145.935 - 145.965
Max Valier Satellite 24 Nov 22:33:14 22:35:20 15° 270° (W) 22:37:26 145.860
AIST 2D 24 Nov 22:45:16 22:47:16 14° 90° (E) 22:49:14 435.315
SPROUT 24 Nov 22:46:47 22:49:59 21° 62° (ENE) 22:53:13 437.525
PRISM 24 Nov 22:49:38 22:53:41 46° 100° (E) 22:57:40 437.425
SO-50 24 Nov 22:50:25 22:54:39 40° 321° (NW) 22:58:59 436.795
O/OREOS (USA 219) 24 Nov 22:53:00 22:57:28 55° 249° (WSW) 23:01:53 437.305
PCSat 24 Nov 22:55:33 22:59:24 20° 107° (ESE) 23:03:15 145.827
UNISAT 6 24 Nov 23:07:21 23:11:26 44° 291° (WNW) 23:15:28 437.425
nSIGHT-1 24 Nov 23:07:40 23:10:52 64° 1° (N) 23:14:04 .
TIGRISAT 24 Nov 23:10:31 23:14:36 44° 291° (WNW) 23:18:37 435.000
DUCHIFAT 1 24 Nov 23:27:48 23:29:39 13° 88° (E) 23:31:30 145.980
EO-79 24 Nov 23:39:24 23:42:37 21° 92° (E) 23:45:49 145.935-145.965
NANOSAT C BR1 24 Nov 23:39:55 23:42:56 19° 91° (E) 23:45:56 145.865
FO-29 24 Nov 23:41:19 23:46:35 20° 314° (NW) 23:51:44 435.910
ESTCUBE 1 24 Nov 23:55:32 23:59:24 28° 266° (W) 00:03:18 437.505/2401.250
POLYITAN 1 24 Nov 23:55:35 23:59:18 29° 95° (E) 00:02:59 437.675
VELOX 1 24 Nov 23:56:22 00:00:45 62° 71° (ENE) 00:05:11 145.980
RS-15 25 Nov 00:03:57 00:15:24 42° 12° (NNE) 00:26:20 29.354- 29.394
ISS 25 Nov 00:05:25 00:08:42 78° 10° (N) 00:11:58 437.550
LO-87 25 Nov 00:06:37 00:08:10 12° 271° (W) 00:09:42 145.935 - 145.965
AIST 2D 25 Nov 00:17:16 00:20:42 49° 288° (WNW) 00:24:08 435.315
QB50P2 25 Nov 00:19:00 00:23:10 56° 101° (E) 00:27:17 145.880/145.840
SPROUT 25 Nov 00:21:24 00:25:34 51° 260° (W) 00:29:46 437.525
PRISM 25 Nov 00:25:27 00:28:40 22° 298° (WNW) 00:31:53 437.425
DX 1 25 Nov 00:28:48 00:32:47 35° 66° (ENE) 00:36:48 434.975-435.025
SO-50 25 Nov 00:33:28 00:36:18 16° 344° (NNW) 00:39:09 436.795
PCSat 25 Nov 00:36:45 00:42:11 80° 308° (NW) 00:47:39 145.827
50 SAT 25 Nov 00:37:05 00:40:06 36° 70° (ENE) 00:43:07 437.505
nSIGHT-1 25 Nov 00:43:58 00:47:09 67° 202° (SSW) 00:50:20 .
UKube-1 25 Nov 01:01:35 01:05:44 47° 69° (ENE) 01:09:54 .
DUCHIFAT 1 25 Nov 01:01:41 01:05:51 77° 287° (WNW) 01:10:01 145.980
BEESAT 3 25 Nov 01:02:30 01:02:43 10° 109° (ESE) 01:02:57 437.485
EO-79 25 Nov 01:14:35 01:18:37 45° 291° (WNW) 01:22:36 145.935-145.965
NANOSAT C BR1 25 Nov 01:14:52 01:18:55 50° 290° (WNW) 01:22:57 145.865
Gurwin Techsat 1B 25 Nov 01:20:39 01:24:44 22° 91° (E) 01:28:49 435.225
AO-91 25 Nov 01:28:41 01:32:40 29° 93° (E) 01:36:16 145.960
POLYITAN 1 25 Nov 01:31:20 01:35:04 32° 294° (WNW) 01:38:48 437.675
VELOX 1 25 Nov 01:34:38 01:37:37 17° 270° (W) 01:40:36 145.980
BUGSAT 1 25 Nov 01:37:15 01:41:17 67° 102° (ESE) 01:45:16 437.445
ISS 25 Nov 01:42:01 01:45:02 34° 211° (SSW) 01:48:02 437.550
MOZHAYETS 4 25 Nov 01:43:20 01:47:10 27° 63° (ENE) 01:51:00
QB50P2 25 Nov 01:55:36 01:58:35 19° 299° (WNW) 02:01:33 145.880/145.840
BEESAT 25 Nov 01:58:39 02:02:51 32° 64° (ENE) 02:07:03 436.000
Oscar 19 25 Nov 02:00:01 02:05:09 59° 102° (ESE) 02:10:16 437.125/150
DX 1 25 Nov 02:05:11 02:09:01 29° 265° (W) 02:12:53 434.975-435.025
CUBESAT XI-V 25 Nov 02:08:00 02:10:25 14° 55° (NE) 02:12:53 437.345
50 SAT 25 Nov 02:10:16 02:12:19 16° 268° (W) 02:14:23 437.505
ITUPSAT 1 25 Nov 02:11:03 02:15:27 39° 66° (ENE) 02:19:55 437.325
SO-50 25 Nov 02:16:04 02:18:34 14° 9° (N) 02:21:04 436.795
RS-15 25 Nov 02:18:03 02:30:10 73° 43° (NE) 02:41:35 29.354- 29.394
M-CUBED/EXP-1 PRIME 25 Nov 02:19:42 02:21:58 13° 93° (E) 02:24:16 437.505
nSIGHT-1 25 Nov 02:20:52 02:22:56 16° 220° (SW) 02:24:59 .
BEESAT 2 25 Nov 02:21:24 02:24:18 19° 115° (ESE) 02:27:15 435.950
PCSat 25 Nov 02:22:06 02:26:25 23° 329° (NNW) 02:30:46 145.827
BEESAT 3 25 Nov 02:35:32 02:39:31 75° 129° (SE) 02:43:32 437.485
UKube-1 25 Nov 02:38:37 02:41:59 22° 267° (W) 02:45:22 .
DUCHIFAT 1 25 Nov 02:39:33 02:40:48 11° 305° (NW) 02:42:01 145.980
AO-7 25 Nov 02:52:17 02:59:01 26° 91° (E) 03:05:42 .
